Taunton, MA

3:52 PM EDT on May 29, 2017 (GMT -0400)
Taunton Municipal

Weather History for KTAN - March, 2013

Change the Weather History Date:

Monday, March 25, 2013

  Actual Average Record
Temperature  
Mean Temperature 38 °F -  
Max Temperature 48 °F 50 °F 73 °F (1987)
Min Temperature 28 °F 28 °F 10 °F (1956)
Degree Days  
Heating Degree Days 27    
Moisture  
Dew Point 28 °F    
Average Humidity 68    
Maximum Humidity 89    
Minimum Humidity 36    
Precipitation  
Precipitation 0.02 in - - ()
Sea Level Pressure  
Sea Level Pressure 29.59 in    
Wind  
Wind Speed 5 mph (NE)    
Max Wind Speed 17 mph    
Max Gust Speed 29 mph    
Visibility 9 miles    
Events Rain    
Averages and records for this station are not official NWS values.
T = Trace of Precipitation, MM = Missing Value Source: NWS Daily Summary

Daily Weather History Graph

Daily Weather History Graph

Search for Another Location

Airport or City:

Trip Planner

Search our weather history database for the weather conditions in past years. The results will help you decide how hot, cold, wet, or windy it might be!

Date:

Astronomy

Mar. 25, 2013 Rise Set
Actual Time 6:38 AM EDT 7:02 PM EDT
Civil Twilight 6:10 AM EDT 7:30 PM EDT
Nautical Twilight 5:37 AM EDT 8:02 PM EDT
Astronomical Twilight 5:04 AM EDT 8:36 PM EDT
Moon 5:29 PM EDT (3/25) 5:21 AM EDT (3/25)
Length of Visible Light 13h 19m
Length of Day
12h 23m
Waxing Gibbous, 96% of the Moon is Illuminated
Mar 25
Waxing Gibbous
Mar 27
Full
Apr 3
Last Quarter
Apr 10
New
Apr 18
First Quarter

Hourly Weather History & Observations

Time (EDT) Temp. Windchill Dew Point Humidity Pressure Visibility Wind Dir Wind Speed Gust Speed Precip Events Conditions
12:52 AM 30.9 °F - 26.1 °F 82% 29.76 in 10.0 mi Calm Calm - N/A   Mostly Cloudy
1:52 AM 30.0 °F - 26.1 °F 85% 29.75 in 10.0 mi Calm Calm - N/A   Clear
2:52 AM 30.0 °F - 26.1 °F 85% 29.74 in 10.0 mi Calm Calm - N/A   Clear
3:52 AM 28.9 °F - 26.1 °F 89% 29.72 in 8.0 mi Calm Calm - N/A   Clear
4:52 AM 28.0 °F - 24.1 °F 85% 29.70 in 6.0 mi Calm Calm - N/A   Clear
5:52 AM 28.0 °F - 25.0 °F 88% 29.69 in 10.0 mi Calm Calm - N/A   Clear
6:52 AM 28.0 °F - 24.1 °F 85% 29.68 in 9.0 mi Calm Calm - N/A   Clear
7:52 AM 34.0 °F - 28.9 °F 82% 29.69 in 10.0 mi Calm Calm - N/A   Clear
8:52 AM 41.0 °F 35.8 °F 32.0 °F 70% 29.68 in 10.0 mi NE 8.1 mph - N/A   Clear
9:52 AM 44.1 °F 39.0 °F 30.9 °F 60% 29.65 in 10.0 mi ENE 9.2 mph 17.3 mph N/A   Partly Cloudy
10:52 AM 45.0 °F 39.7 °F 27.0 °F 49% 29.64 in 10.0 mi East 10.4 mph 19.6 mph N/A   Mostly Cloudy
11:52 AM 46.9 °F - 26.1 °F 44% 29.62 in 10.0 mi ENE 12.7 mph 17.3 mph N/A   Overcast
12:52 PM 48.0 °F - 21.9 °F 36% 29.59 in 10.0 mi East 13.8 mph 24.2 mph N/A   Partly Cloudy
1:52 PM 46.0 °F 40.6 °F 23.0 °F 40% 29.58 in 10.0 mi East 11.5 mph 23.0 mph N/A   Mostly Cloudy
2:52 PM 44.1 °F 37.7 °F 24.1 °F 45% 29.53 in 10.0 mi ENE 12.7 mph 28.8 mph N/A   Scattered Clouds
3:52 PM 44.1 °F 38.6 °F 24.1 °F 45% 29.49 in 10.0 mi ENE 10.4 mph 23.0 mph N/A   Partly Cloudy
4:52 PM 42.1 °F 33.9 °F 25.0 °F 51% 29.49 in 10.0 mi ENE 17.3 mph 27.6 mph N/A   Mostly Cloudy
5:52 PM 41.0 °F 35.2 °F 27.0 °F 57% 29.49 in 10.0 mi NE 9.2 mph 23.0 mph N/A   Mostly Cloudy
6:39 PM 37.9 °F 30.5 °F 30.0 °F 73% 29.50 in 2.5 mi ENE 11.5 mph 25.3 mph 0.00 in Rain Light Rain
6:52 PM 37.9 °F 32.1 °F 30.9 °F 76% 29.50 in 3.0 mi ENE 8.1 mph 20.7 mph 0.01 in Rain Light Rain
7:52 PM 37.0 °F 30.4 °F 30.9 °F 79% 29.51 in 6.0 mi NNE 9.2 mph 20.7 mph 0.01 in Rain Light Rain
8:07 PM 37.0 °F 31.0 °F 32.0 °F 82% 29.50 in 10.0 mi NNE 8.1 mph - 0.00 in   Overcast
8:14 PM 37.0 °F 32.4 °F 32.0 °F 82% 29.50 in 10.0 mi NNE 5.8 mph - 0.00 in   Overcast
8:35 PM 37.9 °F 32.7 °F 32.0 °F 79% 29.50 in 10.0 mi NNE 6.9 mph - 0.00 in   Overcast
8:52 PM 39.0 °F 33.4 °F 30.9 °F 73% 29.51 in 10.0 mi NNE 8.1 mph 19.6 mph 0.00 in   Overcast
9:52 PM 39.0 °F 32.3 °F 28.9 °F 67% 29.50 in 10.0 mi NE 10.4 mph 18.4 mph N/A   Overcast
10:52 PM 39.9 °F 32.5 °F 28.0 °F 63% 29.50 in 10.0 mi NNE 12.7 mph 21.9 mph N/A   Overcast
11:52 PM 39.9 °F 34.5 °F 28.9 °F 65% 29.49 in 10.0 mi North 8.1 mph 19.6 mph N/A   Overcast